EOS-6 (OCEANSAT-3)

Last updated on Thu Sep 10 2026 00:02:52 GMT+0000 (Coordinated Universal Time)

1 54361U 22158A 26252.59373940 .00000146 00000+0 52109-4 0 9995 2 54361 98.3554 349.6702 0002353 92.6950 267.4512 14.47008023200042
UTC large
Height (km)
Speed (km/s)
/
Latitude / Longitude
Inclination (degrees)
Orbital Period (minutes)
Azimuth
Elevation
Range (km)
Doppler Factor

Next 0 passes for location: London (51.5072 / 0.1276)

No passes found over London.
EOS-6 (OCEANSAT-3)